Home   Weather   Tirana   Past weeks
Flag for Albania

Past Weather in Tirana, Albania — Yesterday and Last 2 Weeks

Now
77 °F

Sunny.


Feels Like: 79 °F
Forecast: 91 / 65 °F
Wind: 1 mph from East

Location: Tirana Airport

Current Time: Jul 19, 2019 at 10:13:04 am

Latest Report: Jul 19, 2019 at 9:20 am


Visibility: 10 mi

Pressure: 29.98 "Hg

Humidity: 61%

Dew Point: 63 °F

Location of TiranaLocation

Past Weather in Tirana — Graph

°F

Tirana Temperature Yesterday

Maximum temperature yesterday: 88 °F (at 12:20 pm)
Minimum temperature yesterday: 61 °F (at 3:56 am)
Average temperature yesterday: 75 °F

High & Low Weather Summary for the Past Weeks

 TemperatureHumidityPressure
High97 °F (Jul 7, 1:50 pm)100% (Jul 14, 2:20 am)30.01 "Hg (Jul 14, 2:20 am)
Low59 °F (Jul 11, 4:20 am)27% (Jul 7, 1:50 pm)29.68 "Hg (Jul 10, 7:50 pm)
Average76 °F69%29.84 "Hg
* Reported Jul 4 9:20 am — Jul 19 9:20 am, Tirana. Weather by CustomWeather, © 2019

Note: Actual official high and low records may vary slightly from our data, if they occured in-between our weather recording intervals... More about our weather records

Advertising

Tirana Weather History for the Previous 24 Hours

Scroll right to see more
 ConditionsComfort  
Time TempWeatherWind HumidityBarometerVisibility
9:20 am
Fri, Jul 19
77 °FSunny.1 mph61%29.98 "Hg10 mi
8:50 am75 °FSunny.No wind65%29.98 "Hg10 mi
8:20 am75 °FSunny.2 mph69%29.98 "Hg10 mi
7:50 am72 °FSunny.2 mph73%29.98 "Hg10 mi
7:20 am70 °FSunny.2 mph78%29.98 "Hg10 mi
6:50 am66 °FPassing clouds.3 mph83%29.98 "HgN/A
6:20 am64 °FSunny.2 mph88%29.98 "Hg10 mi
5:50 am64 °FSunny.2 mph88%29.98 "Hg10 mi
5:20 am64 °FClear.3 mph88%29.95 "Hg10 mi
4:50 am64 °FClear.5 mph88%29.95 "Hg10 mi
4:20 am64 °FClear.5 mph88%29.95 "Hg10 mi
3:50 am64 °FClear.3 mph88%29.95 "Hg10 mi
3:20 am66 °FClear.3 mph88%29.95 "Hg10 mi
2:50 am66 °FPassing clouds.3 mph88%29.95 "HgN/A
2:20 am66 °FClear.3 mph88%29.95 "Hg10 mi
1:50 am66 °FClear.2 mph88%29.95 "Hg10 mi
1:20 am66 °FClear.2 mph88%29.95 "Hg10 mi
12:50 am68 °FClear.1 mph83%29.95 "Hg10 mi
12:20 am68 °FClear.3 mph83%29.95 "Hg10 mi
11:50 pm
Thu, Jul 18
68 °FClear.2 mph88%29.95 "Hg10 mi
11:20 pm70 °FClear.2 mph83%29.95 "Hg10 mi
10:50 pm70 °FClear.1 mph83%29.95 "Hg10 mi
10:20 pm70 °FClear.1 mph83%29.95 "Hg10 mi
9:50 pm72 °FClear.3 mph78%29.92 "Hg10 mi
9:20 pm73 °FClear.3 mph78%29.92 "Hg10 mi
8:50 pm75 °FClear.2 mph69%29.92 "Hg10 mi
8:20 pm77 °FClear.5 mph61%29.89 "Hg10 mi
7:50 pm81 °FSunny.1 mph51%29.89 "Hg10 mi
7:20 pm82 °FSunny.2 mph45%29.89 "Hg10 mi
6:50 pm82 °FSunny.5 mph42%29.89 "Hg10 mi
6:20 pm82 °FPassing clouds.5 mph42%29.86 "HgN/A
5:50 pm84 °FPassing clouds.5 mph40%29.86 "HgN/A
5:20 pm84 °FPassing clouds.6 mph43%29.86 "HgN/A
4:50 pm84 °FPassing clouds.7 mph45%29.86 "HgN/A
4:20 pm84 °FPassing clouds.7 mph45%29.86 "HgN/A
3:50 pm84 °FPassing clouds.7 mph51%29.86 "HgN/A
3:20 pm84 °FPassing clouds.9 mph48%29.89 "HgN/A
2:50 pm86 °FPassing clouds.12 mph49%29.86 "HgN/A
2:20 pm86 °FPassing clouds.8 mph52%29.86 "HgN/A
1:50 pm88 °FPassing clouds.6 mph52%29.86 "HgN/A
1:20 pm86 °FPassing clouds.6 mph52%29.89 "HgN/A
12:50 pm86 °FSunny.3 mph43%29.89 "Hg10 mi
12:20 pm88 °FSunny.2 mph38%29.89 "Hg10 mi
11:50 am84 °FSunny.3 mph40%29.89 "Hg10 mi
11:20 am81 °FSunny.3 mph42%29.89 "Hg10 mi
10:50 am79 °FPassing clouds.3 mph48%29.89 "HgN/A
10:20 am79 °FPassing clouds.3 mph48%29.89 "HgN/A
Weather by CustomWeather, © 2019

See weather overview